Location: Petruro
(41.0333°N, 14.7833°E)
Time: 05:47:04
(UTC+00:00)

ATLAS 5 CENTAUR R/B - Visible Passes

Search period start: 18 October 2021 00:00
Search period end: 28 October 2021 00:00
Orbit: 268 x 12587 km, 20.2° (Epoch: 17 October)

Date Brightness Start Highest point End Pass type
(mag) Time Alt. Az. Time Alt. Az. Time Alt. Az.
18 Oct 5.0 01:41:26 28° S 01:48:52 35° SE 02:43:44 10° E visible
19 Oct 5.0 01:43:34 29° S 01:50:45 36° SSE 02:45:42 10° E visible
20 Oct 5.0 01:45:40 30° S 01:52:38 36° SSE 02:47:35 10° E visible
21 Oct 5.0 01:47:44 30° S 01:54:29 37° SSE 02:49:23 10° E visible
22 Oct 4.9 01:49:45 31° S 01:56:18 37° SSE 02:51:06 10° E visible
23 Oct 4.9 01:51:44 31° S 01:58:06 38° SSE 02:52:44 10° E visible
24 Oct 4.9 01:53:41 32° S 01:59:52 38° SSE 02:54:17 10° E visible
25 Oct 4.9 01:55:35 32° S 02:01:38 39° SSE 02:55:46 10° ESE visible
26 Oct 4.8 01:57:27 33° S 02:03:22 39° SSE 02:57:10 10° ESE visible
27 Oct 4.8 01:59:17 33° S 02:05:04 39° SSE 02:58:30 10° ESE visible
